Location: Barcelona
(41.3830°N, 2.1830°E)
Time: 13:14:13
(UTC+02:00)

ISS - Pass Details

Date: 26 May 2020
Orbit: 417 x 419 km, 51.6° (Epoch: 31 May)

Event Time Altitude Azimuth Distance (km) Brightness Sun altitude
Rises 23:55:37 0° 309° (NW) 2,368 1.2 -22.2°
Reaches altitude 10° 23:57:56 10° 323° (NW) 1,502 0.1 -22.4°
Maximum altitude 00:00:51 26° 22° (NNE) 860 -1.8 -22.7°
Enters shadow 00:01:24 25° 40° (NE) 891 -1.9 -22.7°
